Reno - Stead, NV

3:07 AM PST on November 15, 2019 (GMT -0800)
Reno - Stead

Weather History for KRTS - August, 2019

Change the Weather History Date:

Sunday, August 25, 2019

  Actual Average (KRNO) Record (KRNO)
Temperature  
Mean Temperature 73 °F -  
Max Temperature 89 °F 87 °F 99 °F (1924)
Min Temperature 57 °F 47 °F 31 °F (1963)
Cooling Degree Days 8    
Growing Degree Days 23 (Base 50)    
Moisture  
Dew Point 41 °F    
Average Humidity 33    
Maximum Humidity 59    
Minimum Humidity 14    
Precipitation  
Precipitation 0.00 in - - ()
Sea Level Pressure  
Sea Level Pressure 30.20 in    
Wind  
Wind Speed 8 mph (WNW)    
Max Wind Speed 21 mph    
Max Gust Speed 28 mph    
Visibility 10 miles    
Events      
Averages and records for this station are not official NWS values.
T = Trace of Precipitation, MM = Missing Value Source: NWS Daily Summary

Daily Weather History Graph

Daily Weather History Graph

Search for Another Location

Airport or City:

Astronomy

Aug. 25, 2019 Rise Set
Actual Time 6:21 AM PDT 7:41 PM PDT
Civil Twilight 5:52 AM PDT 8:09 PM PDT
Nautical Twilight 5:19 AM PDT 8:43 PM PDT
Astronomical Twilight 4:43 AM PDT 9:18 PM PDT
Moon 1:00 AM PDT (8/25) 4:07 PM PDT (8/25)
Length of Visible Light 14h 16m
Length of Day
13h 20m
Waning Crescent, 28% of the Moon is Illuminated
Aug 25
Waning Crescent
Aug 30
New
Sep 5
First Quarter
Sep 13
Full
Sep 21
Last Quarter

Hourly Weather History & Observations

Time (PDT) Temp. Dew Point Humidity Pressure Visibility Wind Dir Wind Speed Gust Speed Precip Events Conditions
12:15 AM 66.2 °F 42.8 °F 43% 30.19 in 10.0 mi WNW 9.2 mph - N/A   Clear
12:35 AM 64.4 °F 42.8 °F 45% 30.19 in 10.0 mi Calm Calm - N/A   Clear
12:55 AM 66.2 °F 42.8 °F 43% 30.19 in 10.0 mi West 3.5 mph - N/A   Clear
1:15 AM 64.4 °F 42.8 °F 45% 30.19 in 10.0 mi WSW 4.6 mph - N/A   Clear
1:35 AM 64.4 °F 42.8 °F 45% 30.19 in 10.0 mi Calm Calm - N/A   Clear
1:55 AM 66.2 °F 41.0 °F 40% 30.19 in 10.0 mi Calm Calm - N/A   Clear
2:15 AM 62.6 °F 41.0 °F 45% 30.19 in 10.0 mi Variable 5.8 mph - N/A   Clear
2:35 AM 60.8 °F 42.8 °F 52% 30.20 in 10.0 mi WNW 10.4 mph - N/A   Clear
2:55 AM 62.6 °F 42.8 °F 48% 30.20 in 10.0 mi WNW 11.5 mph - N/A   Clear
3:15 AM 59.0 °F 41.0 °F 51% 30.21 in 10.0 mi NW 8.1 mph - N/A   Clear
3:35 AM 60.8 °F 42.8 °F 52% 30.21 in 10.0 mi WNW 8.1 mph - N/A   Clear
3:55 AM 59.0 °F 42.8 °F 55% 30.21 in 10.0 mi NW 8.1 mph - N/A   Clear
4:15 AM 59.0 °F 42.8 °F 55% 30.21 in 10.0 mi NW 6.9 mph - N/A   Clear
4:35 AM 59.0 °F 41.0 °F 51% 30.21 in 10.0 mi NW 8.1 mph - N/A   Clear
4:55 AM 57.2 °F 41.0 °F 55% 30.21 in 10.0 mi NNW 6.9 mph - N/A   Clear
5:15 AM 57.2 °F 41.0 °F 55% 30.21 in 10.0 mi NNW 9.2 mph - N/A   Clear
5:35 AM 57.2 °F 41.0 °F 55% 30.22 in 10.0 mi NNW 9.2 mph - N/A   Clear
5:55 AM 59.0 °F 42.8 °F 55% 30.22 in 10.0 mi NW 9.2 mph - N/A   Clear
6:15 AM 59.0 °F 42.8 °F 55% 30.23 in 10.0 mi NW 10.4 mph - N/A   Clear
6:35 AM 60.8 °F 42.8 °F 52% 30.23 in 10.0 mi WNW 9.2 mph - N/A   Clear
6:55 AM 57.2 °F 42.8 °F 59% 30.24 in 10.0 mi NW 8.1 mph - N/A   Clear
7:15 AM 60.8 °F 42.8 °F 52% 30.24 in 10.0 mi NW 6.9 mph - N/A   Clear
7:35 AM 62.6 °F 42.8 °F 48% 30.24 in 10.0 mi NNW 5.8 mph - N/A   Clear
7:55 AM 66.2 °F 44.6 °F 46% 30.25 in 10.0 mi NNW 5.8 mph - N/A   Clear
8:15 AM 68.0 °F 44.6 °F 43% 30.25 in 10.0 mi North 4.6 mph - N/A   Clear
8:35 AM 71.6 °F 44.6 °F 38% 30.24 in 10.0 mi Calm Calm - N/A   Clear
8:55 AM 75.2 °F 44.6 °F 34% 30.24 in 10.0 mi WSW 8.1 mph - N/A   Clear
9:15 AM 75.2 °F 44.6 °F 34% 30.23 in 10.0 mi SW 6.9 mph - N/A   Clear
9:35 AM 77.0 °F 42.8 °F 29% 30.23 in 10.0 mi Variable 6.9 mph 12.7 mph N/A   Clear
9:55 AM 80.6 °F 39.2 °F 23% 30.23 in 10.0 mi WSW 13.8 mph - N/A   Clear
10:15 AM 80.6 °F 42.8 °F 26% 30.24 in 10.0 mi WNW 10.4 mph 16.1 mph N/A   Clear
10:35 AM 80.6 °F 41.0 °F 24% 30.23 in 10.0 mi WNW 9.2 mph 16.1 mph N/A   Clear
10:55 AM 80.6 °F 41.0 °F 24% 30.24 in 10.0 mi Variable 3.5 mph 12.7 mph N/A   Clear
11:15 AM 82.4 °F 42.8 °F 25% 30.23 in 10.0 mi Variable 4.6 mph - N/A   Clear
11:35 AM 82.4 °F 42.8 °F 25% 30.23 in 10.0 mi WNW 8.1 mph - N/A   Clear
11:55 AM 82.4 °F 42.8 °F 25% 30.23 in 10.0 mi Variable 3.5 mph 11.5 mph N/A   Clear
12:15 PM 82.4 °F 42.8 °F 25% 30.21 in 10.0 mi Calm Calm - N/A   Clear
12:35 PM 84.2 °F 39.2 °F 20% 30.21 in 10.0 mi Variable 6.9 mph 15.0 mph N/A   Clear
12:55 PM 86.0 °F 37.4 °F 18% 30.20 in 10.0 mi WNW 13.8 mph - N/A   Clear
1:15 PM 87.8 °F 35.6 °F 16% 30.19 in 10.0 mi WNW 12.7 mph 25.3 mph N/A   Clear
1:35 PM 87.8 °F 35.6 °F 16% 30.19 in 10.0 mi NW 15.0 mph 23.0 mph N/A   Clear
1:55 PM 87.8 °F 33.8 °F 15% 30.19 in 10.0 mi WNW 15.0 mph 27.6 mph N/A   Clear
2:15 PM 89.6 °F 33.8 °F 14% 30.19 in 10.0 mi West 12.7 mph 24.2 mph N/A   Clear
2:35 PM 89.6 °F 35.6 °F 15% 30.18 in 10.0 mi NW 16.1 mph 25.3 mph N/A   Clear
2:55 PM 89.6 °F 35.6 °F 15% 30.18 in 10.0 mi NW 13.8 mph 23.0 mph N/A   Clear
3:15 PM 89.6 °F 33.8 °F 14% 30.18 in 10.0 mi WNW 15.0 mph 23.0 mph N/A   Clear
3:35 PM 89.6 °F 33.8 °F 14% 30.17 in 10.0 mi WNW 20.7 mph - N/A   Clear
3:55 PM 89.6 °F 35.6 °F 15% 30.17 in 10.0 mi WNW 20.7 mph - N/A   Clear
4:15 PM 87.8 °F 35.6 °F 16% 30.17 in 10.0 mi WNW 15.0 mph 20.7 mph N/A   Clear
4:35 PM 87.8 °F 35.6 °F 16% 30.17 in 10.0 mi NW 16.1 mph 24.2 mph N/A   Clear
4:55 PM 87.8 °F 37.4 °F 17% 30.17 in 10.0 mi WNW 17.3 mph 24.2 mph N/A   Clear
5:15 PM 87.8 °F 39.2 °F 18% 30.17 in 10.0 mi NW 12.7 mph 20.7 mph N/A   Clear
5:35 PM 86.0 °F 39.2 °F 19% 30.17 in 10.0 mi NW 16.1 mph - N/A   Clear
5:55 PM 86.0 °F 39.2 °F 19% 30.17 in 10.0 mi WNW 19.6 mph - N/A   Clear
6:15 PM 84.2 °F 39.2 °F 20% 30.16 in 10.0 mi WNW 19.6 mph - N/A   Clear
6:35 PM 84.2 °F 39.2 °F 20% 30.16 in 10.0 mi WNW 18.4 mph - N/A   Clear
6:55 PM 82.4 °F 39.2 °F 21% 30.16 in 10.0 mi WNW 15.0 mph - N/A   Clear
7:15 PM 80.6 °F 37.4 °F 21% 30.17 in 10.0 mi WNW 13.8 mph 23.0 mph N/A   Clear
7:35 PM 78.8 °F 39.2 °F 24% 30.18 in 10.0 mi WNW 12.7 mph - N/A   Clear
7:55 PM 77.0 °F 39.2 °F 26% 30.19 in 10.0 mi WNW 12.7 mph - N/A   Clear
8:15 PM 75.2 °F 39.2 °F 27% 30.19 in 10.0 mi WNW 10.4 mph - N/A   Clear
8:35 PM 73.4 °F 41.0 °F 31% 30.20 in 10.0 mi WNW 9.2 mph - N/A   Clear
8:55 PM 73.4 °F 41.0 °F 31% 30.21 in 10.0 mi WNW 11.5 mph - N/A   Clear
9:15 PM 73.4 °F 42.8 °F 33% 30.21 in 10.0 mi WNW 13.8 mph 20.7 mph N/A   Clear
9:35 PM 73.4 °F 41.0 °F 31% 30.21 in 10.0 mi WNW 15.0 mph 21.9 mph N/A   Clear
9:55 PM 73.4 °F 42.8 °F 33% 30.22 in 10.0 mi WNW 13.8 mph - N/A   Clear
10:35 PM 71.6 °F 42.8 °F 35% 30.22 in 10.0 mi WNW 9.2 mph - N/A   Clear
10:55 PM 69.8 °F 42.8 °F 38% 30.22 in 10.0 mi WNW 6.9 mph 13.8 mph N/A   Clear
11:15 PM 68.0 °F 42.8 °F 40% 30.22 in 10.0 mi West 8.1 mph - N/A   Clear
11:35 PM 68.0 °F 41.0 °F 37% 30.22 in 10.0 mi WNW 8.1 mph - N/A   Clear
11:55 PM 68.0 °F 41.0 °F 37% 30.22 in 10.0 mi WNW 9.2 mph - N/A   Clear